カタログに戻る

CZ-6A DEB

運用中PO
NORAD 55003·DEBRIS·🇨🇳 China

打ち上げ Nov 11, 2022 から Taiyuan Satellite Launch Center

Loading…

次のパス (今後24時間)

TLE

最新Source: Space-Track

元期: Sep 14, 2026, 17:18 UTC

1 55003U 22151UT  26257.72132439  .00117701  00000-0  43846-2 0  9991
2 55003  98.6127 358.3452 0027461 263.3715  96.4394 15.26611666204152

AllMySatでCZ-6A DEBをリアルタイム追跡

Download on the App Store